Home > Time Zones > World Clock > Weather > Iran > Yazd > Past weeks

Flag for Iran Weather past 2 weeks in Yazd, Iran

Now
84 °F

Clear.


Feels Like: 81 °F
Forecast: 81 / 105 °F
Wind: 5 mph from Northwest

Location: Yazd Airport

Current Time: Jul 6, 2015 at 7:30:33 AM

Latest Report: Jul 6, 2015 at 7:00 AM


Visibility: 10 mi

Pressure: 29.95 "Hg (26.10 "Hg at 1218m altitude)

Humidity: 20%

Dew point: 39 °F

Location of YazdLocation

Historic Weather in Yazd — Graph

°F

Yazd temperature yesterday

Maximum temperature yesterday: 106 °F (at 4:30 PM)
Minimum temperature yesterday: 84 °F (at 2:30 AM)
Average temperature yesterday: 95 °F

Past Weeks' High & Low Weather Summary

 TemperatureHumidityPressure
High109 °F (Jun 22, 2:30 PM)25% (Jul 5, 8:00 AM)30.07 "Hg (Jul 5, 8:00 AM)
Low77 °F (Jun 25, 7:00 AM)4% (Jun 21, 2:30 PM)29.50 "Hg (Jun 26, 5:00 PM)
Average96 °F8%29.82 "Hg
* Reported Jun 21 6:30 AM — Jul 6 6:30 AM, Yazd, Weather by CustomWeather, © 2015

Note: Actual official high and low records may vary slightly from our data, if they occured in-between our weather recording intervals... More about our weather records

Advertising

Yazd weather history for previous 24 hours

 ConditionsComfort  
Time TempWeatherWind HumidityBarometerVisibility
6:30 AM
Mon, Jul 6
84 °FClear.2 mph19%29.95 "Hg10 mi
5:30 AM86 °FClear.9 mph18%29.92 "Hg10 mi
4:30 AM86 °FClear.5 mph19%29.92 "Hg10 mi
3:30 AM88 °FClear.7 mph18%29.92 "Hg10 mi
2:30 AM86 °FClear.5 mph17%29.92 "Hg10 mi
1:30 AM88 °FClear.5 mph15%29.92 "Hg10 mi
12:30 AM90 °FClear.7 mph13%29.95 "Hg10 mi
12:00 AM91 °FClear.No wind13%29.95 "Hg10 mi
11:30 PM
Sun, Jul 5
91 °FClear.No wind13%29.95 "Hg10 mi
11:00 PM93 °FPassing clouds.2 mph12%29.95 "HgN/A
10:30 PM95 °FPassing clouds.7 mph11%29.95 "HgN/A
10:00 PM97 °FPassing clouds.12 mph9%29.95 "HgN/A
9:30 PM97 °FScattered clouds.9 mph10%29.92 "HgN/A
9:00 PM97 °FScattered clouds.9 mph9%29.92 "HgN/A
8:30 PM99 °FScattered clouds.14 mph8%N/AN/A
8:00 PM99 °FScattered clouds.14 mph8%29.92 "HgN/A
7:30 PM100 °FScattered clouds.12 mph8%29.92 "HgN/A
7:00 PM100 °FScattered clouds.12 mph8%29.89 "HgN/A
6:30 PM102 °FScattered clouds.14 mph7%29.89 "HgN/A
6:00 PM104 °FScattered clouds.14 mph7%29.89 "HgN/A
5:30 PM102 °FScattered clouds.12 mph6%29.89 "HgN/A
5:00 PM104 °FScattered clouds.12 mph6%29.89 "HgN/A
4:30 PM106 °FScattered clouds.9 mph6%29.92 "HgN/A
3:30 PM104 °FScattered clouds.7 mph7%29.92 "Hg6 mi
2:30 PM100 °FScattered clouds.7 mph9%29.95 "Hg6 mi
1:30 PM102 °FPassing clouds.7 mph9%29.95 "HgN/A
12:30 PM100 °FClear.7 mph12%29.98 "Hg5 mi
11:30 AM97 °FClear.9 mph17%29.98 "Hg4 mi
10:30 AM95 °FClear.7 mph18%30.01 "Hg4 mi
10:00 AM93 °FClear.7 mph19%30.01 "Hg4 mi
9:30 AM91 °FPartly sunny.7 mph21%30.01 "Hg4 mi
9:00 AM90 °FPartly sunny.7 mph24%30.01 "Hg4 mi
8:00 AM86 °FPartly sunny.7 mph25%29.98 "Hg4 mi
7:30 AM86 °FPartly sunny.7 mph22%29.98 "Hg4 mi
7:00 AM84 °FClear.7 mph23%29.98 "Hg10 mi
Weather by CustomWeather, © 2015

See weather overviewHow to use our weather pages